GW5265 Weather Reports


time (UTC)temp
C
wind
direction
speed
KPH
gust
KPH
rain 1hr
cm
rain 24hr
cm
rain mn
cm
humidity
%
barometer
mb
20260508034052 6 288 0.0 3.2 0.00 0.00 0.00 66 1016.8
20260508033549 6 294 0.0 0.0 0.00 0.00 0.00 69 1016.4
20260508033048 6 211 0.0 0.0 0.00 0.00 0.00 66 1016.5
20260508032543 6 244 0.0 1.6 0.00 0.00 0.00 68 1016.5
20260508032042 6 227 0.0 1.6 0.00 0.00 0.00 67 1016.4
20260508031538 7 278 0.0 3.2 0.00 0.00 0.00 65 1016.4
20260508031034 7 274 0.0 0.0 0.00 0.00 0.00 63 1016.5
20260508030531 7 210 0.0 1.6 0.00 0.00 0.00 62 1016.5
20260508030029 6 224 0.0 1.6 0.00 0.00 0.00 65 1016.4
20260508025524 6 239 0.0 1.6 0.00 0.00 0.00 66 1016.5
20260508025022 7 239 0.0 0.0 0.00 0.00 0.00 65 1016.2
20260508024518 7 225 1.6 1.6 0.00 0.00 0.00 66 1016.1
20260508024015 7 215 0.0 0.0 0.00 0.00 0.00 61 1016.2
20260508023511 8 282 0.0 0.0 0.00 0.00 0.00 62 1016.3
20260508023009 8 196 1.6 4.8 0.00 0.00 0.00 61 1016.0
20260508022504 8 296 0.0 0.0 0.00 0.00 0.00 58 1016.0
20260508022001 8 288 0.0 0.0 0.00 0.00 0.00 60 1016.0
20260508021458 9 316 0.0 3.2 0.00 0.00 0.00 58 1015.9
20260508020954 9 323 3.2 6.4 0.00 0.00 0.00 54 1015.7
20260508020452 9 269 0.0 0.0 0.00 0.00 0.00 57 1015.8
20260508015948 10 232 0.0 1.6 0.00 0.00 0.00 56 1015.5
20260508015446 10 259 0.0 3.2 0.00 0.00 0.00 51 1015.7
20260508014943 10 325 0.0 1.6 0.00 0.00 0.00 52 1015.5
20260508014440 11 288 6.4 6.4 0.00 0.00 0.00 51 1015.5
20260508013935 11 296 3.2 6.4 0.00 0.00 0.00 48 1015.5
20260508013431 11 279 1.6 4.8 0.00 0.00 0.00 52 1015.5
20260508012929 11 255 4.8 4.8 0.00 0.00 0.00 48 1015.4
20260508012426 11 270 1.6 4.8 0.00 0.00 0.00 48 1015.3
20260508011923 11 286 3.2 6.4 0.00 0.00 0.00 47 1015.3
20260508011421 12 286 6.4 9.7 0.00 0.00 0.00 45 1015.2
20260508010918 12 270 4.8 11.3 0.00 0.00 0.00 45 1015.2
20260508010415 12 301 4.8 22.5 0.00 0.00 0.00 44 1015.0
20260508005912 12 310 6.4 11.3 0.00 0.00 0.00 46 1015.1
20260508005409 12 317 6.4 11.3 0.00 0.00 0.00 45 1014.8
20260508004906 12 308 4.8 16.1 0.00 0.00 0.00 46 1014.8
20260508004402 12 323 11.3 12.9 0.00 0.00 0.00 45 1014.7
20260508003859 12 309 1.6 6.4 0.00 0.00 0.00 46 1014.5
20260508003355 12 320 6.4 6.4 0.00 0.00 0.00 44 1014.6
20260508002853 12 293 4.8 9.7 0.00 0.00 0.00 45 1014.4
20260508002349 12 276 6.4 11.3 0.00 0.00 0.00 43 1014.2
20260508001845 13 306 6.4 9.7 0.00 0.00 0.00 44 1014.2
20260508001341 13 307 8.0 12.9 0.00 0.00 0.00 42 1013.8
20260508000838 13 310 4.8 9.7 0.00 0.00 0.00 45 1014.0
20260508000335 13 313 6.4 6.4 0.00 0.00 0.00 42 1014.0
20260507235831 13 321 4.8 12.9 0.00 0.00 0.00 41 1013.8
20260507235329 14 304 6.4 14.5 0.00 0.00 0.00 40 1013.7
20260507234825 14 300 8.0 14.5 0.00 0.00 0.00 41 1013.6
20260507234322 14 302 6.4 11.3 0.00 0.00 0.00 39 1013.5
20260507233818 15 319 6.4 11.3 0.00 0.00 0.00 39 1013.5
20260507233316 14 290 4.8 11.3 0.00 0.00 0.00 42 1013.5
20260507232814 14 331 12.9 16.1 0.00 0.00 0.00 38 1013.6
20260507232310 14 308 9.7 14.5 0.00 0.00 0.00 39 1013.4
20260507231807 15 274 0.0 6.4 0.00 0.00 0.00 40 1013.2
20260507231304 15 315 6.4 9.7 0.00 0.00 0.00 41 1013.5
20260507230800 15 317 8.0 9.7 0.00 0.00 0.00 39 1013.3
20260507230258 14 304 14.5 20.9 0.00 0.00 0.00 39 1013.2
20260507225758 14 292 11.3 14.5 0.00 0.00 0.00 40 1013.1
20260507225254 15 300 12.9 16.1 0.00 0.00 0.00 38 1013.1
20260507224750 15 326 9.7 12.9 0.00 0.00 0.00 39 1013.0
20260507224247 15 263 14.5 20.9 0.00 0.00 0.00 39 1013.2
20260507223743 15 275 3.2 9.7 0.00 0.00 0.00 37 1013.0
20260507223240 15 316 4.8 12.9 0.00 0.00 0.00 41 1013.2
20260507222737 14 271 12.9 14.5 0.00 0.00 0.00 40 1013.0
20260507222233 15 303 9.7 11.3 0.00 0.00 0.00 40 1012.9
20260507221730 15 307 6.4 11.3 0.00 0.00 0.00 43 1012.9
20260507221226 15 322 11.3 20.9 0.00 0.00 0.00 40 1012.9
20260507220723 15 309 8.0 20.9 0.00 0.00 0.00 39 1012.7
20260507220221 16 253 6.4 17.7 0.00 0.00 0.00 37 1012.7
20260507215717 16 274 8.0 12.9 0.00 0.00 0.00 38 1012.6
20260507215215 15 316 9.7 12.9 0.00 0.00 0.00 41 1012.7
20260507214712 15 323 1.6 12.9 0.00 0.00 0.00 39 1012.7
20260507214209 16 301 4.8 14.5 0.00 0.00 0.00 41 1012.4
20260507213704 16 333 9.7 17.7 0.00 0.00 0.00 38 1012.5
20260507213202 16 325 11.3 12.9 0.00 0.00 0.00 39 1012.5
20260507212657 16 317 9.7 12.9 0.00 0.00 0.00 42 1012.3
20260507212154 15 304 6.4 17.7 0.00 0.00 0.00 43 1012.5
20260507211651 15 290 3.2 17.7 0.00 0.00 0.00 43 1012.6
20260507211146 15 315 8.0 11.3 0.00 0.00 0.00 41 1012.2
20260507210644 16 310 9.7 12.9 0.00 0.00 0.00 43 1012.4
20260507210141 15 325 8.0 9.7 0.00 0.00 0.00 44 1012.5
20260507205637 15 308 4.8 11.3 0.00 0.00 0.00 46 1012.5
20260507205134 15 288 8.0 11.3 0.00 0.00 0.00 44 1012.5
20260507204630 15 290 11.3 14.5 0.00 0.00 0.00 45 1012.4
20260507204128 14 327 3.2 12.9 0.00 0.00 0.00 44 1012.2
20260507203626 14 294 4.8 16.1 0.00 0.00 0.00 43 1012.3
20260507203123 14 315 4.8 6.4 0.00 0.00 0.00 47 1012.2
20260507202619 14 323 4.8 6.4 0.00 0.00 0.00 45 1012.5
20260507202115 14 324 6.4 11.3 0.00 0.00 0.00 44 1012.8
20260507201610 14 278 4.8 11.3 0.00 0.00 0.00 50 1012.5
20260507201108 14 321 4.8 11.3 0.00 0.00 0.00 47 1012.5
20260507200603 14 307 9.7 12.9 0.00 0.00 0.00 46 1012.3
20260507200059 14 331 3.2 4.8 0.00 0.00 0.00 49 1012.3
20260507195557 14 313 6.4 14.5 0.00 0.00 0.00 46 1012.7
20260507195054 15 273 8.0 12.9 0.00 0.00 0.00 43 1012.7
20260507194550 15 334 6.4 14.5 0.00 0.00 0.00 45 1012.7
20260507194046 15 275 14.5 16.1 0.00 0.00 0.00 46 1013.0
20260507193543 15 285 9.7 16.1 0.00 0.00 0.00 46 1013.1
20260507193040 15 239 8.0 22.5 0.00 0.00 0.00 45 1012.9
20260507192536 15 291 4.8 11.3 0.00 0.00 0.00 48 1013.1
20260507192033 15 309 9.7 12.9 0.00 0.00 0.00 45 1013.1
20260507191528 13 331 3.2 16.1 0.00 0.00 0.00 47 1012.9
20260507191026 13 327 9.7 11.3 0.00 0.00 0.00 50 1013.3
20260507190523 13 309 11.3 20.9 0.00 0.00 0.00 48 1012.9
20260507190022 14 307 12.9 16.1 0.00 0.00 0.00 49 1013.0
20260507185520 13 310 6.4 20.9 0.00 0.00 0.00 49 1013.1
20260507185016 14 309 8.0 16.1 0.00 0.00 0.00 49 1013.1
20260507184514 14 308 4.8 12.9 0.00 0.00 0.00 50 1013.1
20260507184012 14 61 4.8 11.3 0.00 0.00 0.00 45 1013.0
20260507183507 14 305 6.4 14.5 0.00 0.00 0.00 47 1013.0
20260507183005 14 319 12.9 14.5 0.00 0.00 0.00 47 1013.1
20260507182501 15 327 6.4 9.7 0.00 0.00 0.00 45 1013.2
20260507181957 15 314 6.4 12.9 0.00 0.00 0.00 47 1013.2
20260507181454 14 321 9.7 14.5 0.00 0.00 0.00 49 1013.3
20260507180950 15 319 9.7 11.3 0.00 0.00 0.00 49 1013.1
20260507180447 15 320 3.2 6.4 0.00 0.00 0.00 49 1013.3
20260507175943 15 332 12.9 22.5 0.00 0.00 0.00 48 1013.1
20260507175440 15 287 4.8 6.4 0.00 0.00 0.00 53 1013.3
20260507174938 15 315 4.8 14.5 0.00 0.00 0.00 46 1013.0
20260507174434 15 334 16.1 22.5 0.00 0.00 0.00 46 1013.3
20260507173932 15 311 9.7 14.5 0.00 0.00 0.00 46 1013.3
20260507173429 15 321 12.9 14.5 0.00 0.00 0.00 47 1013.4
20260507172926 15 324 16.1 17.7 0.00 0.00 0.00 48 1013.5
20260507172422 15 305 6.4 16.1 0.00 0.00 0.00 52 1013.7
20260507171918 15 323 11.3 14.5 0.00 0.00 0.00 48 1013.6
20260507171415 16 279 8.0 20.9 0.00 0.00 0.00 46 1013.8
20260507170912 15 219 11.3 14.5 0.00 0.00 0.00 45 1013.7
20260507170409 15 213 0.0 6.4 0.00 0.00 0.00 46 1014.0
20260507165905 14 35 3.2 9.7 0.00 0.00 0.00 46 1014.1
20260507165401 13 322 3.2 12.9 0.00 0.00 0.00 50 1014.1
20260507164857 13 334 6.4 11.3 0.00 0.00 0.00 50 1014.1
20260507164354 13 250 3.2 6.4 0.00 0.00 0.00 46 1014.1
20260507163851 13 318 3.2 11.3 0.00 0.00 0.00 50 1014.2
20260507163348 13 328 3.2 9.7 0.00 0.00 0.00 52 1014.4
20260507162845 13 315 0.0 3.2 0.00 0.00 0.00 52 1014.4
20260507162340 13 331 3.2 11.3 0.00 0.00 0.00 49 1014.3
20260507161838 13 295 8.0 11.3 0.00 0.00 0.00 49 1014.4
20260507161334 13 305 3.2 9.7 0.00 0.00 0.00 46 1014.4
20260507160831 14 316 9.7 14.5 0.00 0.00 0.00 49 1014.3
20260507160326 13 236 0.0 11.3 0.00 0.00 0.00 50 1014.4
20260507155823 13 322 4.8 12.9 0.00 0.00 0.00 49 1014.6
20260507155319 12 325 4.8 11.3 0.00 0.00 0.00 51 1014.6
20260507154816 13 20 0.0 3.2 0.00 0.00 0.00 49 1014.6
20260507154313 12 329 1.6 4.8 0.00 0.00 0.00 52 1014.7
20260507153810 12 332 9.7 12.9 0.00 0.00 0.00 52 1014.5
20260507153306 13 322 0.0 4.8 0.00 0.00 0.00 50 1014.5
20260507152803 13 42 1.6 4.8 0.00 0.00 0.00 51 1014.6
20260507152259 13 66 1.6 9.7 0.00 0.00 0.00 54 1014.4
20260507151755 12 333 3.2 6.4 0.00 0.00 0.00 54 1014.5
20260507151251 12 304 3.2 9.7 0.00 0.00 0.00 54 1014.7
20260507150748 12 326 9.7 12.9 0.00 0.00 0.00 54 1014.6
20260507150245 13 252 3.2 9.7 0.00 0.00 0.00 52 1014.7
20260507145741 12 237 1.6 3.2 0.00 0.00 0.00 52 1014.5
20260507145238 11 244 1.6 6.4 0.00 0.00 0.00 54 1014.7
20260507144735 11 282 3.2 6.4 0.00 0.00 0.00 57 1014.8
20260507144233 12 308 9.7 11.3 0.00 0.00 0.00 57 1014.8
20260507143729 11 330 1.6 3.2 0.00 0.00 0.00 55 1014.7
20260507143226 11 48 0.0 1.6 0.00 0.00 0.00 56 1014.7
20260507142723 11 326 4.8 4.8 0.00 0.00 0.00 59 1014.8
20260507142219 11 237 6.4 6.4 0.00 0.00 0.00 58 1014.8
20260507141715 11 289 6.4 9.7 0.00 0.00 0.00 62 1014.7
20260507141213 11 53 6.4 6.4 0.00 0.00 0.00 61 1014.7
20260507140708 11 61 0.0 6.4 0.00 0.00 0.00 59 1015.0
20260507140206 11 76 3.2 11.3 0.00 0.00 0.00 61 1015.1
20260507135703 11 72 0.0 6.4 0.00 0.00 0.00 60 1015.2
20260507135200 11 239 0.0 0.0 0.00 0.00 0.00 60 1015.2
20260507134657 10 348 0.0 0.0 0.00 0.00 0.00 61 1015.5
20260507134153 10 54 4.8 11.3 0.00 0.00 0.00 60 1015.7
20260507133649 10 70 3.2 4.8 0.00 0.00 0.00 61 1015.6
20260507133146 10 35 0.0 3.2 0.00 0.00 0.00 62 1015.7
20260507132643 10 15 3.2 4.8 0.00 0.00 0.00 63 1015.8
20260507132139 10 323 0.0 1.6 0.00 0.00 0.00 64 1015.8
20260507131636 10 141 0.0 1.6 0.00 0.00 0.00 64 1016.0
20260507131134 10 191 0.0 0.0 0.00 0.00 0.00 65 1016.3
20260507130630 10 214 1.6 3.2 0.00 0.00 0.00 66 1016.2
20260507130129 9 308 3.2 6.4 0.00 0.00 0.00 64 1015.7
20260507125627 9 299 3.2 3.2 0.00 0.00 0.00 67 1015.9
20260507125124 9 232 1.6 3.2 0.00 0.00 0.00 68 1015.9
20260507124620 9 316 0.0 0.0 0.00 0.00 0.00 69 1015.7
20260507124118 8 205 0.0 0.0 0.00 0.00 0.00 68 1015.8
20260507123616 7 196 0.0 0.0 0.00 0.00 0.00 77 1015.8
20260507123113 7 99 0.0 0.0 0.00 0.00 0.00 84 1016.0
20260507122608 7 119 0.0 0.0 0.00 0.00 0.00 88 1016.0
20260507122104 7 79 0.0 0.0 0.00 0.00 0.00 91 1015.9
20260507121600 7 82 0.0 0.0 0.00 0.00 0.00 91 1015.8
20260507121056 6 86 0.0 0.0 0.00 0.00 0.00 91 1015.9
20260507120552 6 83 0.0 0.0 0.00 0.00 0.00 91 1015.9
20260507120049 6 83 0.0 0.0 0.00 0.00 0.00 91 1015.9
20260507115545 6 113 0.0 0.0 0.00 0.00 0.00 91 1015.7
20260507115041 6 112 0.0 0.0 0.00 0.00 0.00 91 1015.9
20260507114537 6 107 0.0 0.0 0.00 0.00 0.00 91 1015.9
20260507114035 6 93 0.0 0.0 0.00 0.00 0.00 91 1015.7
20260507113532 6 78 0.0 0.0 0.00 0.00 0.00 91 1015.8
20260507113029 5 80 0.0 0.0 0.00 0.00 0.00 91 1015.8
20260507112527 5 106 0.0 0.0 0.00 0.00 0.00 91 1015.8
20260507112023 5 174 0.0 0.0 0.00 0.00 0.00 91 1015.7
20260507111520 5 176 0.0 0.0 0.00 0.00 0.00 91 1015.8
20260507111017 5 125 0.0 0.0 0.00 0.00 0.00 91 1016.1
20260507110513 5 133 0.0 0.0 0.00 0.00 0.00 91 1016.1
20260507110010 4 133 0.0 0.0 0.00 0.00 0.00 91 1015.8
20260507105507 4 129 0.0 0.0 0.00 0.00 0.00 91 1015.8
20260507105003 4 128 0.0 0.0 0.00 0.00 0.00 91 1015.6
20260507104501 4 121 0.0 0.0 0.00 0.00 0.00 91 1015.8
20260507103956 4 127 0.0 0.0 0.00 0.00 0.00 91 1015.8
20260507103453 4 127 0.0 0.0 0.00 0.00 0.00 91 1015.7
20260507102949 4 109 0.0 0.0 0.00 0.00 0.00 91 1015.7
20260507102446 4 120 0.0 0.0 0.00 0.00 0.00 91 1015.7
20260507101942 4 197 0.0 0.0 0.00 0.00 0.00 91 1015.7
20260507101437 4 197 0.0 0.0 0.00 0.00 0.00 90 1015.7
20260507100934 5 197 0.0 0.0 0.00 0.00 0.00 90 1015.8
20260507100432 4 197 0.0 0.0 0.00 0.00 0.00 90 1015.5
20260507095930 4 197 0.0 0.0 0.00 0.00 0.00 90 1015.5
20260507095427 4 197 0.0 0.0 0.00 0.00 0.00 90 1015.5
20260507094924 5 200 0.0 0.0 0.00 0.00 0.00 90 1015.7
20260507094420 5 221 0.0 0.0 0.00 0.00 0.00 90 1015.6
20260507093917 5 220 0.0 0.0 0.00 0.00 0.00 90 1015.6
20260507093415 5 191 0.0 0.0 0.00 0.00 0.00 90 1015.4
20260507092913 5 126 0.0 0.0 0.00 0.00 0.00 89 1015.4
20260507092409 5 100 0.0 0.0 0.00 0.00 0.00 89 1015.5
20260507091906 5 99 0.0 0.0 0.00 0.00 0.00 89 1015.3
20260507091402 5 98 0.0 0.0 0.00 0.00 0.00 89 1015.5
20260507090858 5 171 0.0 0.0 0.00 0.00 0.00 89 1015.6
20260507090354 5 116 0.0 0.0 0.00 0.00 0.00 88 1015.5
20260507085852 5 96 0.0 0.0 0.00 0.00 0.00 87 1015.3
20260507085348 6 80 0.0 0.0 0.00 0.00 0.00 87 1015.6
20260507084846 6 101 0.0 0.0 0.00 0.00 0.00 86 1015.4
20260507084342 6 101 0.0 0.0 0.00 0.00 0.00 85 1015.5
20260507083839 6 105 0.0 0.0 0.00 0.00 0.00 85 1015.4
20260507083336 7 137 0.0 0.0 0.00 0.00 0.00 85 1015.7
20260507082832 7 211 0.0 0.0 0.00 0.00 0.00 85 1015.7
20260507082327 7 333 0.0 0.0 0.00 0.00 0.00 83 1015.4
20260507081825 7 205 0.0 0.0 0.00 0.00 0.00 82 1015.5
20260507081321 8 260 0.0 0.0 0.00 0.00 0.00 83 1015.3
20260507080818 8 79 0.0 0.0 0.00 0.00 0.00 81 1015.4
20260507080314 8 82 0.0 0.0 0.00 0.00 0.00 82 1015.5
20260507075809 8 250 0.0 0.0 0.00 0.00 0.00 83 1015.5
20260507075307 8 268 0.0 0.0 0.00 0.00 0.00 84 1015.4
20260507074802 8 268 0.0 0.0 0.00 0.00 0.00 84 1015.3
20260507074300 8 267 0.0 0.0 0.00 0.00 0.00 84 1015.2
20260507073757 8 244 0.0 0.0 0.00 0.00 0.00 84 1015.4
20260507073253 8 244 0.0 0.0 0.00 0.00 0.00 84 1015.4
20260507072751 8 244 0.0 0.0 0.00 0.00 0.00 84 1015.2
20260507072248 8 308 0.0 0.0 0.00 0.00 0.00 83 1015.3
20260507071746 8 168 0.0 0.0 0.00 0.00 0.00 79 1015.3
20260507071242 8 168 0.0 0.0 0.00 0.00 0.00 82 1015.3
20260507070739 8 267 0.0 0.0 0.00 0.00 0.00 83 1015.2
20260507070236 8 283 0.0 0.0 0.00 0.00 0.00 82 1015.2
20260507065732 8 13 0.0 1.6 0.00 0.00 0.00 80 1015.2
20260507065229 8 78 1.6 1.6 0.00 0.00 0.00 82 1015.4
20260507064727 8 282 0.0 0.0 0.00 0.00 0.00 83 1015.3
20260507064226 8 291 0.0 0.0 0.00 0.00 0.00 82 1015.2
20260507063722 8 119 0.0 0.0 0.00 0.00 0.00 81 1015.3
20260507063219 8 310 0.0 0.0 0.00 0.00 0.00 85 1015.3
20260507062716 8 323 0.0 0.0 0.00 0.00 0.00 84 1015.2
20260507062214 8 21 0.0 0.0 0.00 0.00 0.00 82 1015.4
20260507061711 8 312 0.0 0.0 0.00 0.00 0.00 83 1015.2
20260507061209 8 314 0.0 0.0 0.00 0.00 0.00 83 1015.1
20260507060707 9 314 0.0 0.0 0.00 0.00 0.00 83 1015.4
20260507060203 9 319 0.0 0.0 0.00 0.00 0.00 81 1015.4
20260507055659 9 276 0.0 0.0 0.00 0.00 0.00 79 1015.2
20260507055155 9 230 0.0 0.0 0.00 0.00 0.00 78 1015.3
20260507054651 9 319 0.0 0.0 0.00 0.00 0.00 77 1015.5
20260507054148 9 97 0.0 0.0 0.00 0.00 0.00 74 1015.4
20260507053646 9 294 0.0 0.0 0.00 0.00 0.00 75 1015.4
20260507053144 10 297 1.6 3.2 0.00 0.00 0.00 77 1015.6
20260507052642 10 53 1.6 4.8 0.00 0.00 0.00 74 1015.8
20260507052138 10 64 0.0 0.0 0.00 0.00 0.00 74 1015.6
20260507051636 10 75 0.0 0.0 0.00 0.00 0.00 75 1015.6
20260507051132 10 282 0.0 0.0 0.00 0.00 0.00 75 1015.7
20260507050629 10 301 0.0 0.0 0.00 0.00 0.00 74 1015.9
20260507050126 10 322 0.0 0.0 0.00 0.00 0.00 74 1015.7
20260507045623 10 329 0.0 0.0 0.00 0.00 0.00 74 1015.7
20260507045120 10 318 1.6 3.2 0.00 0.00 0.00 75 1015.9
20260507044616 10 331 0.0 3.2 0.00 0.00 0.00 77 1015.9
20260507044113 10 10 0.0 6.4 0.00 0.00 0.00 78 1015.9
20260507043609 10 67 3.2 6.4 0.00 0.00 0.00 82 1015.7
20260507043107 9 52 0.0 11.3 0.00 0.00 0.00 86 1015.5
20260507042602 10 10 0.0 4.8 0.00 0.00 0.00 91 1015.6
20260507042058 10 53 1.6 1.6 0.00 0.00 0.00 91 1015.7
20260507041555 10 264 0.0 0.0 0.00 0.00 0.00 91 1015.5
20260507041052 10 301 0.0 0.0 0.00 0.00 0.00 91 1015.3
20260507040548 10 302 0.0 0.0 0.00 0.00 0.00 91 1015.4
20260507040045 10 302 0.0 0.0 0.00 1.22 1.22 91 1015.6
20260507035541 10 301 0.0 0.0 0.00 1.22 1.22 91 1015.3
20260507035037 10 301 0.0 0.0 0.00 1.22 1.22 91 1015.3
20260507034534 10 301 0.0 0.0 0.00 1.22 1.22 91 1015.3